Regional Weather Roundup
Issued by NWS Sioux Falls, SD

Home | Current Version | Previous Version | Text Only | Print | Product List | Glossary On
Versions: 1 2 3 4 5 6 7 8 9 10 11 12 13 14 15 16 17 18 19 20 21 22 23 24 25 26 27 28 29 30 31 32 33 34 35 36 37 38 39 40 41 42 43 44 45 46 47 48 49 50
000
ASUS43 KFSD 282102
RWRFSD

WEATHER ROUNDUP FOR SE SOUTH DAKOTA/SW MINNESOTA/NW IOWA
NATIONAL WEATHER SERVICE SIOUX FALLS SD
300 PM CST SUN DEC 28 2014

NOTE: "FAIR" INDICATES FEW OR NO CLOUDS BELOW 12,000 FEET WITH NO
SIGNIFICANT WEATHER AND OR OBSTRUCTIONS TO VISIBILITY.


SDZ038>040-050-052>070-282200-
SOUTHEAST SOUTH DAKOTA

CITY           SKY/WX    TMP DP  RH WIND       PRES   REMARKS
CHAMBERLAIN    NOT AVBL
HURON          CLOUDY    20  16  84 NE10      30.17R WCI   9
MADISON        CLOUDY    19  19 100 NE14      30.12S WCI   6
MITCHELL       MOSUNNY   21  15  78 NE8       30.15R WCI  11
SIOUX FALLS    CLOUDY    20  17  88 NE14      30.14R WCI   7
WINNER         CLOUDY    19  11  70 E10       30.06R WCI   7
YANKTON        CLOUDY    18  12  79 NE5       30.15R WCI  11
$$

MNZ071-072-080-081-089-090-097-098-282200-
SOUTHWEST MINNESOTA

CITY           SKY/WX    TMP DP  RH WIND       PRES   REMARKS
FAIRMONT       SUNNY     21  12  68 N6        30.16R WCI  14
JACKSON        PTSUNNY   21  18  86 N7        30.15R WCI  13
LUVERNE        CLOUDY    23  19  86 NE8       30.15R FOG     WCI  14
MARSHALL       CLOUDY    21  16  79 N10       30.18R WCI  10
MONTEVIDEO     CLOUDY    21  18  86 N8        30.21R WCI  12
PIPESTONE      CLOUDY    19  18  93 NE7       30.13R WCI  10
REDWOOD FALLS  PTSUNNY   25  18  74 N6        30.18R WCI  18
TRACY          CLOUDY    22  19  88 N7        30.17R WCI  14
WINDOM         SUNNY     19  16  86 N8        30.15R WCI   9
WORTHINGTON    MOSUNNY   19 -26  12 N9        30.14R WCI   9
$$

IAZ001>003-012>014-020>022-031-032-NEZ013-014-SDZ071-282200-
NORTHWEST IOWA

CITY           SKY/WX    TMP DP  RH WIND       PRES   REMARKS
DENISON        PTSUNNY   28  21  74 VRB5      30.09S WCI  23
ESTHERVILLE    SUNNY     22  16  78 N8        30.14R WCI  12
LE MARS        MOSUNNY   19  16  86 NE7       30.14S WCI  10
ORANGE CITY    MOSUNNY   21  18  86 NE3       30.12S
SIOUX CITY     MOSUNNY   26  16  65 N3        30.13S
SPENCER        FAIR      25  18  74 NE6       30.14R WCI  18
$$

ABBREVIATIONS USED IN REMARKS
   TC - TEMPERATURE IN CELSIUS
  WCI - WIND CHILL INDEX
   HX - HEAT INDEX
  VSB - VISIBILITY




USA.gov is the U.S. government's official web portal to all federal, state and local government web resources and services.